Childress Municipal Airport Childress US
ICAO: KCDS
IATA: CDS
Category: Medium
Scheduled Services: No

Elevation: 1954 ft
TransAlt. 18000 ft.

Airport Communications:
ASOS:135.125
FORT WORTH CNTR:133.5
FORT WORTH RDO:122.45
CTAF/UNICOM:122.8

KCDS Zoom In..

If you have problems with the map follow the link
https://www.worldairports.se/pages/airport.php?
ICAO=KCDS

Runways:

(A) RW 04 length 4425 ft width 60 ft
---- / hdg 41

(B) RW 18 length 5949 ft width 75 ft
---- / hdg 176

(C) RW 22 length 4425 ft width 60 ft
---- / hdg 221

(D) RW 36 length 5949 ft width 75 ft
---- / hdg 356

Location; KCDS
Day. 16 / Time. 02.53 Zulu
* Altimeter: 30.07
* Temperature: 11° c. 51.8°f.
* Wind from: 220° Speed 09 kn.
Dewpoint: 01° c.
Visibility: 10 Statute Miles.
Clouds: Clear (automated report).

KCDS 160253Z AUTO 22009KT 10SM CLR 11/01 A3007 RMK AO2 SLP181 T01110006 50008


Wind From 220°
Speed 09 kn.

 
 
jpsmedia.com for Web Design worldairports.se 2018   terms of use